When you browse on this site, cookies collect data to enhance your experience and personalize the content and advertising you see.
Visit our Privacy Policy to learn more. By continuing to use the site, you agree to this use of cookies and data.
  • In Czech Republic
  • List of Countries
  • For 7 days
  • Water Temperature
  • Weather Map
  • Weather Widgets
  • user-avatar
    Login

    Hourly Weather Cerny Most

    Today, 20 February, Thursday

    Time Temperature Precipitation Wind Pressure Humidity
    00:00 0°C° 0 mm 5 mps 743 mmHg 75%
    01:00 0°C° 0 mm 4 mps 744 mmHg 77%
    02:00 -1°C° 0 mm 4 mps 744 mmHg 77%
    03:00 -1°C° 0 mm 4 mps 744 mmHg 78%
    04:00 -1°C° 0 mm 4 mps 744 mmHg 78%
    05:00 0°C° 0 mm 3 mps 744 mmHg 82%
    06:00 -1°C° 0 mm 3 mps 744 mmHg 85%
    07:00 -1°C° 0 mm 3 mps 744 mmHg 89%
    08:00 +1°C° 0 mm 3 mps 744 mmHg 84%
    09:00 +2°C° 0 mm 3 mps 744 mmHg 79%
    10:00 +3°C° 0 mm 4 mps 744 mmHg 74%
    11:00 +4°C° 0 mm 4 mps 744 mmHg 72%
    12:00 +5°C° 0 mm 4 mps 744 mmHg 70%
    13:00 +6°C° 0 mm 4 mps 743 mmHg 69%
    14:00 +5°C° 0 mm 3 mps 743 mmHg 72%
    15:00 +5°C° 0 mm 3 mps 743 mmHg 74%
    16:00 +5°C° 0 mm 3 mps 742 mmHg 77%
    17:00 +5°C° 0 mm 3 mps 742 mmHg 79%
    18:00 +4°C° 0 mm 3 mps 741 mmHg 82%
    19:00 +4°C° 0 mm 3 mps 741 mmHg 84%
    20:00 +3°C° 0 mm 3 mps 741 mmHg 83%
    21:00 +3°C° 0 mm 3 mps 740 mmHg 82%
    22:00 +3°C° 0 mm 4 mps 740 mmHg 81%
    23:00 +4°C° 0 mm 4 mps 740 mmHg 78%

    Tomorrow, 21 February, Friday

    Time Temperature Precipitation Wind Pressure Humidity
    00:00 +3°C° 0 mm 5 mps 739 mmHg 76%
    01:00 +3°C° 0 mm 6 mps 739 mmHg 73%
    02:00 +4°C° 0.2 mm 6 mps 738 mmHg 76%
    03:00 +4°C° 0.2 mm 7 mps 738 mmHg 80%
    04:00 +4°C° 0.2 mm 8 mps 738 mmHg 84%
    05:00 +2°C° 0.2 mm 8 mps 739 mmHg 78%
    06:00 +1°C° 0.2 mm 8 mps 741 mmHg 73%
    07:00 0°C° 0.2 mm 9 mps 742 mmHg 68%
    14:00 +4°C° 0 mm 7 mps 747 mmHg 55%
    15:00 +3°C° 0 mm 7 mps 747 mmHg 56%
    16:00 +3°C° 0 mm 6 mps 747 mmHg 57%
    17:00 +2°C° 0 mm 5 mps 747 mmHg 62%
    18:00 +3°C° 0 mm 4 mps 748 mmHg 66%
    19:00 +2°C° 0 mm 3 mps 748 mmHg 70%
    20:00 +2°C° 0 mm 3 mps 748 mmHg 71%
    21:00 +2°C° 0 mm 3 mps 748 mmHg 73%
    22:00 +2°C° 0 mm 3 mps 748 mmHg 74%
    23:00 +2°C° 0 mm 3 mps 748 mmHg 75%

    Day after tomorrow, 22 February, Saturday

    Time Temperature Precipitation Wind Pressure Humidity
    00:00 +2°C° 0 mm 3 mps 748 mmHg 76%
    01:00 +2°C° 0 mm 3 mps 747 mmHg 77%
    02:00 +1°C° 0 mm 4 mps 747 mmHg 78%
    03:00 +1°C° 0 mm 4 mps 747 mmHg 79%
    04:00 +1°C° 0 mm 4 mps 746 mmHg 80%
    05:00 0°C° 0 mm 4 mps 746 mmHg 80%
    06:00 0°C° 0 mm 4 mps 746 mmHg 80%
    07:00 0°C° 0 mm 4 mps 746 mmHg 80%
    08:00 +1°C° 0 mm 5 mps 745 mmHg 72%
    09:00 +3°C° 0 mm 6 mps 745 mmHg 65%
    10:00 +4°C° 0 mm 6 mps 745 mmHg 57%
    11:00 +6°C° 0 mm 7 mps 744 mmHg 53%
    12:00 +8°C° 0 mm 7 mps 744 mmHg 49%
    13:00 +9°C° 0 mm 8 mps 743 mmHg 44%
    14:00 +9°C° 0 mm 7 mps 743 mmHg 44%
    15:00 +10°C° 0 mm 7 mps 742 mmHg 44%
    16:00 +10°C° 0 mm 7 mps 742 mmHg 44%
    17:00 +9°C° 0 mm 7 mps 742 mmHg 46%
    18:00 +9°C° 0 mm 7 mps 742 mmHg 48%
    19:00 +9°C° 0 mm 7 mps 742 mmHg 50%
    20:00 +8°C° 0 mm 7 mps 742 mmHg 53%
    21:00 +8°C° 0 mm 7 mps 741 mmHg 57%
    22:00 +8°C° 0 mm 7 mps 741 mmHg 61%
    23:00 +8°C° 0 mm 7 mps 742 mmHg 63%

    23 February, Sunday

    Time Temperature Precipitation Wind Pressure Humidity
    00:00 +7°C° 0 mm 8 mps 742 mmHg 65%
    01:00 +7°C° 0 mm 8 mps 742 mmHg 67%
    02:00 +7°C° 0 mm 8 mps 742 mmHg 69%
    03:00 +7°C° 0 mm 8 mps 741 mmHg 70%
    04:00 +7°C° 0 mm 8 mps 741 mmHg 72%
    05:00 +8°C° 0 mm 7 mps 741 mmHg 70%
    06:00 +8°C° 0 mm 7 mps 742 mmHg 68%
    07:00 +8°C° 0 mm 7 mps 742 mmHg 67%
    08:00 +8°C° 0 mm 7 mps 742 mmHg 65%
    09:00 +8°C° 0 mm 7 mps 743 mmHg 62%
    10:00 +7°C° 0 mm 8 mps 743 mmHg 60%
    11:00 +6°C° 0.1 mm 7 mps 743 mmHg 63%
    12:00 +6°C° 0.1 mm 7 mps 743 mmHg 67%
    13:00 +6°C° 0.1 mm 7 mps 743 mmHg 71%
    14:00 +7°C° 0.1 mm 6 mps 742 mmHg 74%
    15:00 +7°C° 0.1 mm 5 mps 740 mmHg 77%
    16:00 +7°C° 0.1 mm 5 mps 739 mmHg 81%
    17:00 +8°C° 0.7 mm 6 mps 738 mmHg 80%
    18:00 +7°C° 0.7 mm 8 mps 737 mmHg 79%
    19:00 +8°C° 0.7 mm 9 mps 737 mmHg 78%
    20:00 +8°C° 0.8 mm 9 mps 737 mmHg 79%
    21:00 +8°C° 0.8 mm 9 mps 737 mmHg 81%
    22:00 +8°C° 0.8 mm 9 mps 737 mmHg 83%
    23:00 +7°C° 1.2 mm 9 mps 737 mmHg 83%

    24 February, Monday

    Time Temperature Precipitation Wind Pressure Humidity
    00:00 +6°C° 1.2 mm 8 mps 738 mmHg 83%
    01:00 +5°C° 1.2 mm 8 mps 739 mmHg 83%
    02:00 +4°C° 0.1 mm 7 mps 740 mmHg 82%
    03:00 +3°C° 0.1 mm 6 mps 741 mmHg 81%
    04:00 +2°C° 0.1 mm 5 mps 741 mmHg 80%
    05:00 +3°C° 0 mm 4 mps 742 mmHg 79%
    06:00 +3°C° 0 mm 4 mps 742 mmHg 77%
    07:00 +3°C° 0 mm 3 mps 743 mmHg 76%
    08:00 +3°C° 0 mm 3 mps 743 mmHg 71%
    09:00 +5°C° 0 mm 2 mps 743 mmHg 66%
    10:00 +5°C° 0 mm 2 mps 743 mmHg 61%
    11:00 +5°C° 0 mm 2 mps 743 mmHg 63%
    12:00 +6°C° 0 mm 2 mps 743 mmHg 64%
    13:00 +6°C° 0 mm 2 mps 742 mmHg 66%
    14:00 +6°C° 0 mm 2 mps 742 mmHg 72%
    15:00 +6°C° 0 mm 2 mps 741 mmHg 78%
    16:00 +6°C° 0 mm 2 mps 740 mmHg 84%
    17:00 +7°C° 0 mm 2 mps 740 mmHg 86%
    18:00 +8°C° 0 mm 2 mps 740 mmHg 88%
    19:00 +8°C° 0 mm 3 mps 739 mmHg 90%
    20:00 +8°C° 0 mm 3 mps 739 mmHg 90%
    21:00 +8°C° 0 mm 3 mps 739 mmHg 90%
    22:00 +8°C° 0 mm 3 mps 738 mmHg 90%
    23:00 +7°C° 0 mm 4 mps 738 mmHg 89%

    25 February, Tuesday

    Time Temperature Precipitation Wind Pressure Humidity
    00:00 +7°C° 0 mm 4 mps 738 mmHg 87%
    01:00 +7°C° 0 mm 5 mps 737 mmHg 85%
    02:00 +7°C° 0 mm 5 mps 737 mmHg 85%
    03:00 +7°C° 0 mm 5 mps 737 mmHg 85%
    04:00 +6°C° 0 mm 5 mps 737 mmHg 85%
    05:00 +6°C° 0 mm 5 mps 736 mmHg 86%
    06:00 +6°C° 0 mm 5 mps 736 mmHg 86%
    07:00 +6°C° 0 mm 5 mps 736 mmHg 86%
    08:00 +7°C° 0 mm 5 mps 736 mmHg 82%
    09:00 +8°C° 0 mm 6 mps 735 mmHg 78%
    10:00 +8°C° 0 mm 6 mps 735 mmHg 74%
    11:00 +9°C° 0 mm 6 mps 735 mmHg 70%
    12:00 +10°C° 0 mm 6 mps 734 mmHg 67%
    13:00 +10°C° 0 mm 6 mps 734 mmHg 64%
    14:00 +10°C° 0.1 mm 6 mps 734 mmHg 66%
    15:00 +10°C° 0.1 mm 5 mps 733 mmHg 68%
    16:00 +10°C° 0.1 mm 4 mps 732 mmHg 70%
    17:00 +10°C° 0.1 mm 4 mps 732 mmHg 73%
    18:00 +8°C° 0.1 mm 4 mps 732 mmHg 75%
    19:00 +8°C° 0.1 mm 4 mps 732 mmHg 77%
    20:00 +8°C° 0.1 mm 4 mps 732 mmHg 79%
    21:00 +7°C° 0.1 mm 4 mps 732 mmHg 81%
    22:00 +7°C° 0.1 mm 4 mps 732 mmHg 82%
    23:00 +7°C° 0.3 mm 4 mps 731 mmHg 83%
    Show more